Index of /20260415/WXO-DD/model_rdps/10km/00/069
Name Last modified Size Description
Parent Directory -
20260415T00Z_MSC_RDPS_AbsoluteVorticity_IsbL-0250_RLatLon0.09_PT069H.grib2 2026-04-15 03:01 608K
20260415T00Z_MSC_RDPS_AbsoluteVorticity_IsbL-0500_RLatLon0.09_PT069H.grib2 2026-04-15 03:01 554K
20260415T00Z_MSC_RDPS_AbsoluteVorticity_IsbL-0700_RLatLon0.09_PT069H.grib2 2026-04-15 03:01 610K
20260415T00Z_MSC_RDPS_AbsoluteVorticity_IsbL-0850_RLatLon0.09_PT069H.grib2 2026-04-15 03:01 776K
20260415T00Z_MSC_RDPS_AirTemp_AGL-120m_RLatLon0.09_PT069H.grib2 2026-04-15 03:01 397K
20260415T00Z_MSC_RDPS_AirTemp_AGL-2m_RLatLon0.09_PT069H.grib2 2026-04-15 03:01 632K
20260415T00Z_MSC_RDPS_AirTemp_AGL-40m_RLatLon0.09_PT069H.grib2 2026-04-15 03:01 406K
20260415T00Z_MSC_RDPS_AirTemp_AGL-80m_RLatLon0.09_PT069H.grib2 2026-04-15 03:01 401K
20260415T00Z_MSC_RDPS_AirTemp_IsbL-0001_RLatLon0.09_PT069H.grib2 2026-04-15 03:01 319K
20260415T00Z_MSC_RDPS_AirTemp_IsbL-0005_RLatLon0.09_PT069H.grib2 2026-04-15 03:01 334K
20260415T00Z_MSC_RDPS_AirTemp_IsbL-0010_RLatLon0.09_PT069H.grib2 2026-04-15 03:01 343K
20260415T00Z_MSC_RDPS_AirTemp_IsbL-0020_RLatLon0.09_PT069H.grib2 2026-04-15 03:01 325K
20260415T00Z_MSC_RDPS_AirTemp_IsbL-0030_RLatLon0.09_PT069H.grib2 2026-04-15 03:01 381K
20260415T00Z_MSC_RDPS_AirTemp_IsbL-0050_RLatLon0.09_PT069H.grib2 2026-04-15 03:01 325K
20260415T00Z_MSC_RDPS_AirTemp_IsbL-0100_RLatLon0.09_PT069H.grib2 2026-04-15 03:01 423K
20260415T00Z_MSC_RDPS_AirTemp_IsbL-0150_RLatLon0.09_PT069H.grib2 2026-04-15 03:01 405K
20260415T00Z_MSC_RDPS_AirTemp_IsbL-0175_RLatLon0.09_PT069H.grib2 2026-04-15 03:01 405K
20260415T00Z_MSC_RDPS_AirTemp_IsbL-0200_RLatLon0.09_PT069H.grib2 2026-04-15 03:01 413K
20260415T00Z_MSC_RDPS_AirTemp_IsbL-0225_RLatLon0.09_PT069H.grib2 2026-04-15 03:01 414K
20260415T00Z_MSC_RDPS_AirTemp_IsbL-0250_RLatLon0.09_PT069H.grib2 2026-04-15 03:01 422K
20260415T00Z_MSC_RDPS_AirTemp_IsbL-0275_RLatLon0.09_PT069H.grib2 2026-04-15 03:01 403K
20260415T00Z_MSC_RDPS_AirTemp_IsbL-0300_RLatLon0.09_PT069H.grib2 2026-04-15 03:01 431K
20260415T00Z_MSC_RDPS_AirTemp_IsbL-0350_RLatLon0.09_PT069H.grib2 2026-04-15 03:01 415K
20260415T00Z_MSC_RDPS_AirTemp_IsbL-0400_RLatLon0.09_PT069H.grib2 2026-04-15 03:01 382K
20260415T00Z_MSC_RDPS_AirTemp_IsbL-0450_RLatLon0.09_PT069H.grib2 2026-04-15 03:01 388K
20260415T00Z_MSC_RDPS_AirTemp_IsbL-0500_RLatLon0.09_PT069H.grib2 2026-04-15 03:01 400K
20260415T00Z_MSC_RDPS_AirTemp_IsbL-0550_RLatLon0.09_PT069H.grib2 2026-04-15 03:01 418K
20260415T00Z_MSC_RDPS_AirTemp_IsbL-0600_RLatLon0.09_PT069H.grib2 2026-04-15 03:01 438K
20260415T00Z_MSC_RDPS_AirTemp_IsbL-0650_RLatLon0.09_PT069H.grib2 2026-04-15 03:01 350K
20260415T00Z_MSC_RDPS_AirTemp_IsbL-0700_RLatLon0.09_PT069H.grib2 2026-04-15 03:01 374K
20260415T00Z_MSC_RDPS_AirTemp_IsbL-0750_RLatLon0.09_PT069H.grib2 2026-04-15 03:01 411K
20260415T00Z_MSC_RDPS_AirTemp_IsbL-0800_RLatLon0.09_PT069H.grib2 2026-04-15 03:01 455K
20260415T00Z_MSC_RDPS_AirTemp_IsbL-0850_RLatLon0.09_PT069H.grib2 2026-04-15 03:01 503K
20260415T00Z_MSC_RDPS_AirTemp_IsbL-0875_RLatLon0.09_PT069H.grib2 2026-04-15 03:01 533K
20260415T00Z_MSC_RDPS_AirTemp_IsbL-0900_RLatLon0.09_PT069H.grib2 2026-04-15 03:01 543K
20260415T00Z_MSC_RDPS_AirTemp_IsbL-0925_RLatLon0.09_PT069H.grib2 2026-04-15 03:01 541K
20260415T00Z_MSC_RDPS_AirTemp_IsbL-0950_RLatLon0.09_PT069H.grib2 2026-04-15 03:01 539K
20260415T00Z_MSC_RDPS_AirTemp_IsbL-0970_RLatLon0.09_PT069H.grib2 2026-04-15 03:01 532K
20260415T00Z_MSC_RDPS_AirTemp_IsbL-0985_RLatLon0.09_PT069H.grib2 2026-04-15 03:01 525K
20260415T00Z_MSC_RDPS_AirTemp_IsbL-1000_RLatLon0.09_PT069H.grib2 2026-04-15 03:01 512K
20260415T00Z_MSC_RDPS_AirTemp_IsbL-1015_RLatLon0.09_PT069H.grib2 2026-04-15 03:01 509K
20260415T00Z_MSC_RDPS_Albedo_Sfc_RLatLon0.09_PT069H.grib2 2026-04-15 03:01 169K
20260415T00Z_MSC_RDPS_CAPE_Sfc_RLatLon0.09_PT069H.grib2 2026-04-15 03:01 1.7M
20260415T00Z_MSC_RDPS_CIN_Sfc_RLatLon0.09_PT069H.grib2 2026-04-15 03:01 1.3M
20260415T00Z_MSC_RDPS_CloudWater_EAtm_RLatLon0.09_PT069H.grib2 2026-04-15 03:01 214K
20260415T00Z_MSC_RDPS_ConvectivePrecip-Accum_Sfc_RLatLon0.09_PT069H.grib2 2026-04-15 03:01 1.2M
20260415T00Z_MSC_RDPS_DewPointDepression_AGL-2m_RLatLon0.09_PT069H.grib2 2026-04-15 03:01 410K
20260415T00Z_MSC_RDPS_DewPointDepression_IsbL-0001_RLatLon0.09_PT069H.grib2 2026-04-15 03:01 193
20260415T00Z_MSC_RDPS_DewPointDepression_IsbL-0005_RLatLon0.09_PT069H.grib2 2026-04-15 03:01 193
20260415T00Z_MSC_RDPS_DewPointDepression_IsbL-0010_RLatLon0.09_PT069H.grib2 2026-04-15 03:01 193
20260415T00Z_MSC_RDPS_DewPointDepression_IsbL-0020_RLatLon0.09_PT069H.grib2 2026-04-15 03:01 193
20260415T00Z_MSC_RDPS_DewPointDepression_IsbL-0030_RLatLon0.09_PT069H.grib2 2026-04-15 03:01 1.2K
20260415T00Z_MSC_RDPS_DewPointDepression_IsbL-0050_RLatLon0.09_PT069H.grib2 2026-04-15 03:01 103K
20260415T00Z_MSC_RDPS_DewPointDepression_IsbL-0100_RLatLon0.09_PT069H.grib2 2026-04-15 03:01 123K
20260415T00Z_MSC_RDPS_DewPointDepression_IsbL-0150_RLatLon0.09_PT069H.grib2 2026-04-15 03:01 144K
20260415T00Z_MSC_RDPS_DewPointDepression_IsbL-0175_RLatLon0.09_PT069H.grib2 2026-04-15 03:01 177K
20260415T00Z_MSC_RDPS_DewPointDepression_IsbL-0200_RLatLon0.09_PT069H.grib2 2026-04-15 03:01 206K
20260415T00Z_MSC_RDPS_DewPointDepression_IsbL-0225_RLatLon0.09_PT069H.grib2 2026-04-15 03:01 246K
20260415T00Z_MSC_RDPS_DewPointDepression_IsbL-0250_RLatLon0.09_PT069H.grib2 2026-04-15 03:01 290K
20260415T00Z_MSC_RDPS_DewPointDepression_IsbL-0275_RLatLon0.09_PT069H.grib2 2026-04-15 03:01 301K
20260415T00Z_MSC_RDPS_DewPointDepression_IsbL-0300_RLatLon0.09_PT069H.grib2 2026-04-15 03:01 316K
20260415T00Z_MSC_RDPS_DewPointDepression_IsbL-0350_RLatLon0.09_PT069H.grib2 2026-04-15 03:01 319K
20260415T00Z_MSC_RDPS_DewPointDepression_IsbL-0400_RLatLon0.09_PT069H.grib2 2026-04-15 03:01 331K
20260415T00Z_MSC_RDPS_DewPointDepression_IsbL-0450_RLatLon0.09_PT069H.grib2 2026-04-15 03:01 336K
20260415T00Z_MSC_RDPS_DewPointDepression_IsbL-0500_RLatLon0.09_PT069H.grib2 2026-04-15 03:01 341K
20260415T00Z_MSC_RDPS_DewPointDepression_IsbL-0550_RLatLon0.09_PT069H.grib2 2026-04-15 03:01 355K
20260415T00Z_MSC_RDPS_DewPointDepression_IsbL-0600_RLatLon0.09_PT069H.grib2 2026-04-15 03:01 369K
20260415T00Z_MSC_RDPS_DewPointDepression_IsbL-0650_RLatLon0.09_PT069H.grib2 2026-04-15 03:01 381K
20260415T00Z_MSC_RDPS_DewPointDepression_IsbL-0700_RLatLon0.09_PT069H.grib2 2026-04-15 03:01 399K
20260415T00Z_MSC_RDPS_DewPointDepression_IsbL-0750_RLatLon0.09_PT069H.grib2 2026-04-15 03:01 425K
20260415T00Z_MSC_RDPS_DewPointDepression_IsbL-0800_RLatLon0.09_PT069H.grib2 2026-04-15 03:01 457K
20260415T00Z_MSC_RDPS_DewPointDepression_IsbL-0850_RLatLon0.09_PT069H.grib2 2026-04-15 03:01 477K
20260415T00Z_MSC_RDPS_DewPointDepression_IsbL-0875_RLatLon0.09_PT069H.grib2 2026-04-15 03:01 474K
20260415T00Z_MSC_RDPS_DewPointDepression_IsbL-0900_RLatLon0.09_PT069H.grib2 2026-04-15 03:01 468K
20260415T00Z_MSC_RDPS_DewPointDepression_IsbL-0925_RLatLon0.09_PT069H.grib2 2026-04-15 03:01 453K
20260415T00Z_MSC_RDPS_DewPointDepression_IsbL-0950_RLatLon0.09_PT069H.grib2 2026-04-15 03:01 439K
20260415T00Z_MSC_RDPS_DewPointDepression_IsbL-0970_RLatLon0.09_PT069H.grib2 2026-04-15 03:01 432K
20260415T00Z_MSC_RDPS_DewPointDepression_IsbL-0985_RLatLon0.09_PT069H.grib2 2026-04-15 03:01 429K
20260415T00Z_MSC_RDPS_DewPointDepression_IsbL-1000_RLatLon0.09_PT069H.grib2 2026-04-15 03:01 426K
20260415T00Z_MSC_RDPS_DewPointDepression_IsbL-1015_RLatLon0.09_PT069H.grib2 2026-04-15 03:01 418K
20260415T00Z_MSC_RDPS_DewPoint_AGL-2m_RLatLon0.09_PT069H.grib2 2026-04-15 03:01 311K
20260415T00Z_MSC_RDPS_DownwardLongwaveRadiationFlux-Accum_Sfc_RLatLon0.09_PT069H.grib2 2026-04-15 03:01 419K
20260415T00Z_MSC_RDPS_DownwardShortwaveRadiationFlux-Accum_NTAtm_RLatLon0.09_PT069H.grib2 2026-04-15 03:01 105K
20260415T00Z_MSC_RDPS_DownwardShortwaveRadiationFlux-Accum_Sfc_RLatLon0.09_PT069H.grib2 2026-04-15 03:01 594K
20260415T00Z_MSC_RDPS_FreezingRain-Accum1h_Sfc_RLatLon0.09_PT069H.grib2 2026-04-15 03:01 20K
20260415T00Z_MSC_RDPS_FreezingRain-Accum3h_Sfc_RLatLon0.09_PT069H.grib2 2026-04-15 03:01 25K
20260415T00Z_MSC_RDPS_FreezingRain-Accum_Sfc_RLatLon0.09_PT069H.grib2 2026-04-15 03:01 157K
20260415T00Z_MSC_RDPS_GeopotentialHeight_IsbL-0001_RLatLon0.09_PT069H.grib2 2026-04-15 03:01 209K
20260415T00Z_MSC_RDPS_GeopotentialHeight_IsbL-0005_RLatLon0.09_PT069H.grib2 2026-04-15 03:01 266K
20260415T00Z_MSC_RDPS_GeopotentialHeight_IsbL-0010_RLatLon0.09_PT069H.grib2 2026-04-15 03:01 308K
20260415T00Z_MSC_RDPS_GeopotentialHeight_IsbL-0020_RLatLon0.09_PT069H.grib2 2026-04-15 03:01 336K
20260415T00Z_MSC_RDPS_GeopotentialHeight_IsbL-0030_RLatLon0.09_PT069H.grib2 2026-04-15 03:01 338K
20260415T00Z_MSC_RDPS_GeopotentialHeight_IsbL-0050_RLatLon0.09_PT069H.grib2 2026-04-15 03:01 237K
20260415T00Z_MSC_RDPS_GeopotentialHeight_IsbL-0100_RLatLon0.09_PT069H.grib2 2026-04-15 03:01 223K
20260415T00Z_MSC_RDPS_GeopotentialHeight_IsbL-0150_RLatLon0.09_PT069H.grib2 2026-04-15 03:01 262K
20260415T00Z_MSC_RDPS_GeopotentialHeight_IsbL-0175_RLatLon0.09_PT069H.grib2 2026-04-15 03:01 263K
20260415T00Z_MSC_RDPS_GeopotentialHeight_IsbL-0200_RLatLon0.09_PT069H.grib2 2026-04-15 03:01 266K
20260415T00Z_MSC_RDPS_GeopotentialHeight_IsbL-0225_RLatLon0.09_PT069H.grib2 2026-04-15 03:01 267K
20260415T00Z_MSC_RDPS_GeopotentialHeight_IsbL-0250_RLatLon0.09_PT069H.grib2 2026-04-15 03:01 268K
20260415T00Z_MSC_RDPS_GeopotentialHeight_IsbL-0275_RLatLon0.09_PT069H.grib2 2026-04-15 03:01 266K
20260415T00Z_MSC_RDPS_GeopotentialHeight_IsbL-0300_RLatLon0.09_PT069H.grib2 2026-04-15 03:01 265K
20260415T00Z_MSC_RDPS_GeopotentialHeight_IsbL-0350_RLatLon0.09_PT069H.grib2 2026-04-15 03:01 230K
20260415T00Z_MSC_RDPS_GeopotentialHeight_IsbL-0400_RLatLon0.09_PT069H.grib2 2026-04-15 03:01 226K
20260415T00Z_MSC_RDPS_GeopotentialHeight_IsbL-0450_RLatLon0.09_PT069H.grib2 2026-04-15 03:01 221K
20260415T00Z_MSC_RDPS_GeopotentialHeight_IsbL-0500_RLatLon0.09_PT069H.grib2 2026-04-15 03:01 287K
20260415T00Z_MSC_RDPS_GeopotentialHeight_IsbL-0550_RLatLon0.09_PT069H.grib2 2026-04-15 03:01 284K
20260415T00Z_MSC_RDPS_GeopotentialHeight_IsbL-0600_RLatLon0.09_PT069H.grib2 2026-04-15 03:01 280K
20260415T00Z_MSC_RDPS_GeopotentialHeight_IsbL-0650_RLatLon0.09_PT069H.grib2 2026-04-15 03:01 279K
20260415T00Z_MSC_RDPS_GeopotentialHeight_IsbL-0700_RLatLon0.09_PT069H.grib2 2026-04-15 03:01 250K
20260415T00Z_MSC_RDPS_GeopotentialHeight_IsbL-0750_RLatLon0.09_PT069H.grib2 2026-04-15 03:01 253K
20260415T00Z_MSC_RDPS_GeopotentialHeight_IsbL-0800_RLatLon0.09_PT069H.grib2 2026-04-15 03:01 343K
20260415T00Z_MSC_RDPS_GeopotentialHeight_IsbL-0850_RLatLon0.09_PT069H.grib2 2026-04-15 03:01 353K
20260415T00Z_MSC_RDPS_GeopotentialHeight_IsbL-0875_RLatLon0.09_PT069H.grib2 2026-04-15 03:01 355K
20260415T00Z_MSC_RDPS_GeopotentialHeight_IsbL-0900_RLatLon0.09_PT069H.grib2 2026-04-15 03:01 362K
20260415T00Z_MSC_RDPS_GeopotentialHeight_IsbL-0925_RLatLon0.09_PT069H.grib2 2026-04-15 03:01 367K
20260415T00Z_MSC_RDPS_GeopotentialHeight_IsbL-0950_RLatLon0.09_PT069H.grib2 2026-04-15 03:01 370K
20260415T00Z_MSC_RDPS_GeopotentialHeight_IsbL-0970_RLatLon0.09_PT069H.grib2 2026-04-15 03:01 375K
20260415T00Z_MSC_RDPS_GeopotentialHeight_IsbL-0985_RLatLon0.09_PT069H.grib2 2026-04-15 03:01 384K
20260415T00Z_MSC_RDPS_GeopotentialHeight_IsbL-1000_RLatLon0.09_PT069H.grib2 2026-04-15 03:01 396K
20260415T00Z_MSC_RDPS_GeopotentialHeight_IsbL-1015_RLatLon0.09_PT069H.grib2 2026-04-15 03:01 412K
20260415T00Z_MSC_RDPS_Humidex_Sfc_RLatLon0.09_PT069H.grib2 2026-04-15 03:01 2.4M
20260415T00Z_MSC_RDPS_IcePellets-Accum1h_Sfc_RLatLon0.09_PT069H.grib2 2026-04-15 03:01 7.2K
20260415T00Z_MSC_RDPS_IcePellets-Accum3h_Sfc_RLatLon0.09_PT069H.grib2 2026-04-15 03:01 9.9K
20260415T00Z_MSC_RDPS_IcePellets-Accum_Sfc_RLatLon0.09_PT069H.grib2 2026-04-15 03:01 40K
20260415T00Z_MSC_RDPS_KIndex_Sfc_RLatLon0.09_PT069H.grib2 2026-04-15 03:01 2.4M
20260415T00Z_MSC_RDPS_LatentHeatNetFlux_Sfc_RLatLon0.09_PT069H.grib2 2026-04-15 03:01 284K
20260415T00Z_MSC_RDPS_LiftedIndex-MU-VT_IsbL-0500_RLatLon0.09_PT069H.grib2 2026-04-15 03:01 2.4M
20260415T00Z_MSC_RDPS_NetLongwaveRadiationFlux-Accum_Sfc_RLatLon0.09_PT069H.grib2 2026-04-15 03:01 462K
20260415T00Z_MSC_RDPS_NetShortwaveRadiationFlux-Accum_Sfc_RLatLon0.09_PT069H.grib2 2026-04-15 03:01 603K
20260415T00Z_MSC_RDPS_PlanetaryBoundaryLayerHeight_Sfc_RLatLon0.09_PT069H.grib2 2026-04-15 03:01 1.0M
20260415T00Z_MSC_RDPS_Precip-Accum1h_Sfc_RLatLon0.09_PT069H.grib2 2026-04-15 03:01 1.2M
20260415T00Z_MSC_RDPS_Precip-Accum3h_Sfc_RLatLon0.09_PT069H.grib2 2026-04-15 03:01 1.4M
20260415T00Z_MSC_RDPS_Precip-Accum_Sfc_RLatLon0.09_PT069H.grib2 2026-04-15 03:01 2.1M
20260415T00Z_MSC_RDPS_PrecipRate_Sfc_RLatLon0.09_PT069H.grib2 2026-04-15 03:01 167K
20260415T00Z_MSC_RDPS_PrecipType-Instant_Sfc_RLatLon0.09_PT069H.grib2 2026-04-15 03:01 543K
20260415T00Z_MSC_RDPS_Pressure-Trend3h_Sfc_RLatLon0.09_PT069H.grib2 2026-04-15 03:01 1.2M
20260415T00Z_MSC_RDPS_Pressure_MSL_RLatLon0.09_PT069H.grib2 2026-04-15 03:01 298K
20260415T00Z_MSC_RDPS_Pressure_PVU-1.5_RLatLon0.09_PT069H.grib2 2026-04-15 03:01 2.3M
20260415T00Z_MSC_RDPS_Pressure_PVU-1_RLatLon0.09_PT069H.grib2 2026-04-15 03:01 2.4M
20260415T00Z_MSC_RDPS_Pressure_PVU-2_RLatLon0.09_PT069H.grib2 2026-04-15 03:01 2.4M
20260415T00Z_MSC_RDPS_Pressure_Sfc_RLatLon0.09_PT069H.grib2 2026-04-15 03:01 500K
20260415T00Z_MSC_RDPS_RadiativeTemp_Sfc_RLatLon0.09_PT069H.grib2 2026-04-15 03:01 327K
20260415T00Z_MSC_RDPS_Rain-Accum1h_Sfc_RLatLon0.09_PT069H.grib2 2026-04-15 03:01 564K
20260415T00Z_MSC_RDPS_Rain-Accum3h_Sfc_RLatLon0.09_PT069H.grib2 2026-04-15 03:01 646K
20260415T00Z_MSC_RDPS_Rain-Accum_Sfc_RLatLon0.09_PT069H.grib2 2026-04-15 03:01 1.6M
20260415T00Z_MSC_RDPS_RelativeHumidity_AGL-2m_RLatLon0.09_PT069H.grib2 2026-04-15 03:01 1.0M
20260415T00Z_MSC_RDPS_RelativeHumidity_IsbL-0010_RLatLon0.09_PT069H.grib2 2026-04-15 03:01 428K
20260415T00Z_MSC_RDPS_RelativeHumidity_IsbL-0020_RLatLon0.09_PT069H.grib2 2026-04-15 03:01 401K
20260415T00Z_MSC_RDPS_RelativeHumidity_IsbL-0030_RLatLon0.09_PT069H.grib2 2026-04-15 03:01 471K
20260415T00Z_MSC_RDPS_RelativeHumidity_IsbL-0050_RLatLon0.09_PT069H.grib2 2026-04-15 03:01 384K
20260415T00Z_MSC_RDPS_RelativeHumidity_IsbL-0100_RLatLon0.09_PT069H.grib2 2026-04-15 03:01 260K
20260415T00Z_MSC_RDPS_RelativeHumidity_IsbL-0150_RLatLon0.09_PT069H.grib2 2026-04-15 03:01 381K
20260415T00Z_MSC_RDPS_RelativeHumidity_IsbL-0175_RLatLon0.09_PT069H.grib2 2026-04-15 03:01 460K
20260415T00Z_MSC_RDPS_RelativeHumidity_IsbL-0200_RLatLon0.09_PT069H.grib2 2026-04-15 03:01 541K
20260415T00Z_MSC_RDPS_RelativeHumidity_IsbL-0225_RLatLon0.09_PT069H.grib2 2026-04-15 03:01 608K
20260415T00Z_MSC_RDPS_RelativeHumidity_IsbL-0250_RLatLon0.09_PT069H.grib2 2026-04-15 03:01 681K
20260415T00Z_MSC_RDPS_RelativeHumidity_IsbL-0275_RLatLon0.09_PT069H.grib2 2026-04-15 03:01 709K
20260415T00Z_MSC_RDPS_RelativeHumidity_IsbL-0300_RLatLon0.09_PT069H.grib2 2026-04-15 03:01 750K
20260415T00Z_MSC_RDPS_RelativeHumidity_IsbL-0350_RLatLon0.09_PT069H.grib2 2026-04-15 03:01 761K
20260415T00Z_MSC_RDPS_RelativeHumidity_IsbL-0400_RLatLon0.09_PT069H.grib2 2026-04-15 03:01 775K
20260415T00Z_MSC_RDPS_RelativeHumidity_IsbL-0450_RLatLon0.09_PT069H.grib2 2026-04-15 03:01 781K
20260415T00Z_MSC_RDPS_RelativeHumidity_IsbL-0500_RLatLon0.09_PT069H.grib2 2026-04-15 03:01 799K
20260415T00Z_MSC_RDPS_RelativeHumidity_IsbL-0550_RLatLon0.09_PT069H.grib2 2026-04-15 03:01 821K
20260415T00Z_MSC_RDPS_RelativeHumidity_IsbL-0600_RLatLon0.09_PT069H.grib2 2026-04-15 03:01 843K
20260415T00Z_MSC_RDPS_RelativeHumidity_IsbL-0650_RLatLon0.09_PT069H.grib2 2026-04-15 03:01 855K
20260415T00Z_MSC_RDPS_RelativeHumidity_IsbL-0700_RLatLon0.09_PT069H.grib2 2026-04-15 03:01 883K
20260415T00Z_MSC_RDPS_RelativeHumidity_IsbL-0750_RLatLon0.09_PT069H.grib2 2026-04-15 03:01 935K
20260415T00Z_MSC_RDPS_RelativeHumidity_IsbL-0800_RLatLon0.09_PT069H.grib2 2026-04-15 03:01 1.0M
20260415T00Z_MSC_RDPS_RelativeHumidity_IsbL-0850_RLatLon0.09_PT069H.grib2 2026-04-15 03:01 1.0M
20260415T00Z_MSC_RDPS_RelativeHumidity_IsbL-0875_RLatLon0.09_PT069H.grib2 2026-04-15 03:01 1.1M
20260415T00Z_MSC_RDPS_RelativeHumidity_IsbL-0900_RLatLon0.09_PT069H.grib2 2026-04-15 03:01 1.1M
20260415T00Z_MSC_RDPS_RelativeHumidity_IsbL-0925_RLatLon0.09_PT069H.grib2 2026-04-15 03:01 1.1M
20260415T00Z_MSC_RDPS_RelativeHumidity_IsbL-0950_RLatLon0.09_PT069H.grib2 2026-04-15 03:01 1.1M
20260415T00Z_MSC_RDPS_RelativeHumidity_IsbL-0970_RLatLon0.09_PT069H.grib2 2026-04-15 03:01 1.0M
20260415T00Z_MSC_RDPS_RelativeHumidity_IsbL-0985_RLatLon0.09_PT069H.grib2 2026-04-15 03:01 1.0M
20260415T00Z_MSC_RDPS_RelativeHumidity_IsbL-1000_RLatLon0.09_PT069H.grib2 2026-04-15 03:01 1.0M
20260415T00Z_MSC_RDPS_RelativeHumidity_IsbL-1015_RLatLon0.09_PT069H.grib2 2026-04-15 03:01 1.0M
20260415T00Z_MSC_RDPS_Runoff-Accum_Sfc_RLatLon0.09_PT069H.grib2 2026-04-15 03:01 63K
20260415T00Z_MSC_RDPS_SWEATIndex_Sfc_RLatLon0.09_PT069H.grib2 2026-04-15 03:01 2.4M
20260415T00Z_MSC_RDPS_SeeingIndex_EAtm_RLatLon0.09_PT069H.grib2 2026-04-15 03:01 1.0M
20260415T00Z_MSC_RDPS_SensibleHeatNetFlux_Sfc_RLatLon0.09_PT069H.grib2 2026-04-15 03:01 354K
20260415T00Z_MSC_RDPS_ShowalterIndex_IsbL-0500_RLatLon0.09_PT069H.grib2 2026-04-15 03:01 2.6M
20260415T00Z_MSC_RDPS_SkyTransparencyIndex_EAtm_RLatLon0.09_PT069H.grib2 2026-04-15 03:01 720K
20260415T00Z_MSC_RDPS_Snow-Accum1h_Sfc_RLatLon0.09_PT069H.grib2 2026-04-15 03:01 555K
20260415T00Z_MSC_RDPS_Snow-Accum3h_Sfc_RLatLon0.09_PT069H.grib2 2026-04-15 03:01 557K
20260415T00Z_MSC_RDPS_Snow-Accum_Sfc_RLatLon0.09_PT069H.grib2 2026-04-15 03:01 894K
20260415T00Z_MSC_RDPS_SnowDensity_Sfc_RLatLon0.09_PT069H.grib2 2026-04-15 03:01 179K
20260415T00Z_MSC_RDPS_SnowDepth_Sfc_RLatLon0.09_PT069H.grib2 2026-04-15 03:01 742K
20260415T00Z_MSC_RDPS_SoilTemp_DBS-0to10cm_RLatLon0.09_PT069H.grib2 2026-04-15 03:01 241K
20260415T00Z_MSC_RDPS_SoilTemp_Sfc_RLatLon0.09_PT069H.grib2 2026-04-15 03:01 282K
20260415T00Z_MSC_RDPS_SoilVolumetricIceContent_Sfc_RLatLon0.09_PT069H.grib2 2026-04-15 03:01 176K
20260415T00Z_MSC_RDPS_SoilVolumetricWaterContent_DBS-0to10cm_RLatLon0.09_PT069H.grib2 2026-04-15 03:01 245K
20260415T00Z_MSC_RDPS_SoilVolumetricWaterContent_DBS-0to1cm_RLatLon0.09_PT069H.grib2 2026-04-15 03:01 336K
20260415T00Z_MSC_RDPS_SpecificHumidity_AGL-120m_RLatLon0.09_PT069H.grib2 2026-04-15 03:01 484K
20260415T00Z_MSC_RDPS_SpecificHumidity_AGL-2m_RLatLon0.09_PT069H.grib2 2026-04-15 03:01 647K
20260415T00Z_MSC_RDPS_SpecificHumidity_AGL-40m_RLatLon0.09_PT069H.grib2 2026-04-15 03:01 488K
20260415T00Z_MSC_RDPS_SpecificHumidity_AGL-80m_RLatLon0.09_PT069H.grib2 2026-04-15 03:01 485K
20260415T00Z_MSC_RDPS_SpecificHumidity_IsbL-0001_RLatLon0.09_PT069H.grib2 2026-04-15 03:01 308K
20260415T00Z_MSC_RDPS_SpecificHumidity_IsbL-0005_RLatLon0.09_PT069H.grib2 2026-04-15 03:01 336K
20260415T00Z_MSC_RDPS_SpecificHumidity_IsbL-0010_RLatLon0.09_PT069H.grib2 2026-04-15 03:01 372K
20260415T00Z_MSC_RDPS_SpecificHumidity_IsbL-0020_RLatLon0.09_PT069H.grib2 2026-04-15 03:01 371K
20260415T00Z_MSC_RDPS_SpecificHumidity_IsbL-0030_RLatLon0.09_PT069H.grib2 2026-04-15 03:01 424K
20260415T00Z_MSC_RDPS_SpecificHumidity_IsbL-0050_RLatLon0.09_PT069H.grib2 2026-04-15 03:01 378K
20260415T00Z_MSC_RDPS_SpecificHumidity_IsbL-0100_RLatLon0.09_PT069H.grib2 2026-04-15 03:01 525K
20260415T00Z_MSC_RDPS_SpecificHumidity_IsbL-0150_RLatLon0.09_PT069H.grib2 2026-04-15 03:01 464K
20260415T00Z_MSC_RDPS_SpecificHumidity_IsbL-0175_RLatLon0.09_PT069H.grib2 2026-04-15 03:01 426K
20260415T00Z_MSC_RDPS_SpecificHumidity_IsbL-0200_RLatLon0.09_PT069H.grib2 2026-04-15 03:01 438K
20260415T00Z_MSC_RDPS_SpecificHumidity_IsbL-0225_RLatLon0.09_PT069H.grib2 2026-04-15 03:01 439K
20260415T00Z_MSC_RDPS_SpecificHumidity_IsbL-0250_RLatLon0.09_PT069H.grib2 2026-04-15 03:01 500K
20260415T00Z_MSC_RDPS_SpecificHumidity_IsbL-0275_RLatLon0.09_PT069H.grib2 2026-04-15 03:01 459K
20260415T00Z_MSC_RDPS_SpecificHumidity_IsbL-0300_RLatLon0.09_PT069H.grib2 2026-04-15 03:01 431K
20260415T00Z_MSC_RDPS_SpecificHumidity_IsbL-0350_RLatLon0.09_PT069H.grib2 2026-04-15 03:01 513K
20260415T00Z_MSC_RDPS_SpecificHumidity_IsbL-0400_RLatLon0.09_PT069H.grib2 2026-04-15 03:01 497K
20260415T00Z_MSC_RDPS_SpecificHumidity_IsbL-0450_RLatLon0.09_PT069H.grib2 2026-04-15 03:01 549K
20260415T00Z_MSC_RDPS_SpecificHumidity_IsbL-0500_RLatLon0.09_PT069H.grib2 2026-04-15 03:01 487K
20260415T00Z_MSC_RDPS_SpecificHumidity_IsbL-0550_RLatLon0.09_PT069H.grib2 2026-04-15 03:01 564K
20260415T00Z_MSC_RDPS_SpecificHumidity_IsbL-0600_RLatLon0.09_PT069H.grib2 2026-04-15 03:01 617K
20260415T00Z_MSC_RDPS_SpecificHumidity_IsbL-0650_RLatLon0.09_PT069H.grib2 2026-04-15 03:01 536K
20260415T00Z_MSC_RDPS_SpecificHumidity_IsbL-0700_RLatLon0.09_PT069H.grib2 2026-04-15 03:01 583K
20260415T00Z_MSC_RDPS_SpecificHumidity_IsbL-0750_RLatLon0.09_PT069H.grib2 2026-04-15 03:01 646K
20260415T00Z_MSC_RDPS_SpecificHumidity_IsbL-0800_RLatLon0.09_PT069H.grib2 2026-04-15 03:01 732K
20260415T00Z_MSC_RDPS_SpecificHumidity_IsbL-0850_RLatLon0.09_PT069H.grib2 2026-04-15 03:01 799K
20260415T00Z_MSC_RDPS_SpecificHumidity_IsbL-0875_RLatLon0.09_PT069H.grib2 2026-04-15 03:01 684K
20260415T00Z_MSC_RDPS_SpecificHumidity_IsbL-0900_RLatLon0.09_PT069H.grib2 2026-04-15 03:01 697K
20260415T00Z_MSC_RDPS_SpecificHumidity_IsbL-0925_RLatLon0.09_PT069H.grib2 2026-04-15 03:01 698K
20260415T00Z_MSC_RDPS_SpecificHumidity_IsbL-0950_RLatLon0.09_PT069H.grib2 2026-04-15 03:01 696K
20260415T00Z_MSC_RDPS_SpecificHumidity_IsbL-0970_RLatLon0.09_PT069H.grib2 2026-04-15 03:01 689K
20260415T00Z_MSC_RDPS_SpecificHumidity_IsbL-0985_RLatLon0.09_PT069H.grib2 2026-04-15 03:01 681K
20260415T00Z_MSC_RDPS_SpecificHumidity_IsbL-1000_RLatLon0.09_PT069H.grib2 2026-04-15 03:01 673K
20260415T00Z_MSC_RDPS_SpecificHumidity_IsbL-1015_RLatLon0.09_PT069H.grib2 2026-04-15 03:01 662K
20260415T00Z_MSC_RDPS_SpecificHumidity_Sfc_RLatLon0.09_PT069H.grib2 2026-04-15 03:01 328K
20260415T00Z_MSC_RDPS_StormRelativeHelicity_EtaL-10000_RLatLon0.09_PT069H.grib2 2026-04-15 03:01 1.1M
20260415T00Z_MSC_RDPS_StormSeverityIndex_EtaL-10000_RLatLon0.09_PT069H.grib2 2026-04-15 03:01 1.2M
20260415T00Z_MSC_RDPS_Thickness_IsbL-0850to0700_RLatLon0.09_PT069H.grib2 2026-04-15 03:01 175K
20260415T00Z_MSC_RDPS_Thickness_IsbL-1000to0500_RLatLon0.09_PT069H.grib2 2026-04-15 03:01 138K
20260415T00Z_MSC_RDPS_Thickness_IsbL-1000to0850_RLatLon0.09_PT069H.grib2 2026-04-15 03:01 186K
20260415T00Z_MSC_RDPS_TotalCloudCover_Sfc_RLatLon0.09_PT069H.grib2 2026-04-15 03:01 656K
20260415T00Z_MSC_RDPS_TotalTotalsIndex_Sfc_RLatLon0.09_PT069H.grib2 2026-04-15 03:01 2.4M
20260415T00Z_MSC_RDPS_UVIndex-ClearSky_Sfc_RLatLon0.09_PT069H.grib2 2026-04-15 03:01 193K
20260415T00Z_MSC_RDPS_UVIndex_Sfc_RLatLon0.09_PT069H.grib2 2026-04-15 03:01 444K
20260415T00Z_MSC_RDPS_UpwardLongwaveRadiationFlux_NTAtm_RLatLon0.09_PT069H.grib2 2026-04-15 03:01 491K
20260415T00Z_MSC_RDPS_UpwardShortwaveRadiationFlux_NTAtm_RLatLon0.09_PT069H.grib2 2026-04-15 03:01 491K
20260415T00Z_MSC_RDPS_VerticalVelocity_IsbL-0250_RLatLon0.09_PT069H.grib2 2026-04-15 03:01 545K
20260415T00Z_MSC_RDPS_VerticalVelocity_IsbL-0500_RLatLon0.09_PT069H.grib2 2026-04-15 03:01 533K
20260415T00Z_MSC_RDPS_VerticalVelocity_IsbL-0700_RLatLon0.09_PT069H.grib2 2026-04-15 03:01 583K
20260415T00Z_MSC_RDPS_VerticalVelocity_IsbL-0850_RLatLon0.09_PT069H.grib2 2026-04-15 03:01 689K
20260415T00Z_MSC_RDPS_VerticalWindShear_EtaL-6500_RLatLon0.09_PT069H.grib2 2026-04-15 03:01 1.2M
20260415T00Z_MSC_RDPS_WindChill_Sfc_RLatLon0.09_PT069H.grib2 2026-04-15 03:01 1.1M
20260415T00Z_MSC_RDPS_WindDir_AGL-10m_RLatLon0.09_PT069H.grib2 2026-04-15 03:01 961K
20260415T00Z_MSC_RDPS_WindDir_AGL-120m_RLatLon0.09_PT069H.grib2 2026-04-15 03:01 601K
20260415T00Z_MSC_RDPS_WindDir_AGL-40m_RLatLon0.09_PT069H.grib2 2026-04-15 03:01 625K
20260415T00Z_MSC_RDPS_WindDir_AGL-80m_RLatLon0.09_PT069H.grib2 2026-04-15 03:01 611K
20260415T00Z_MSC_RDPS_WindDir_IsbL-0001_RLatLon0.09_PT069H.grib2 2026-04-15 03:01 257K
20260415T00Z_MSC_RDPS_WindDir_IsbL-0005_RLatLon0.09_PT069H.grib2 2026-04-15 03:01 332K
20260415T00Z_MSC_RDPS_WindDir_IsbL-0010_RLatLon0.09_PT069H.grib2 2026-04-15 03:01 362K
20260415T00Z_MSC_RDPS_WindDir_IsbL-0020_RLatLon0.09_PT069H.grib2 2026-04-15 03:01 373K
20260415T00Z_MSC_RDPS_WindDir_IsbL-0030_RLatLon0.09_PT069H.grib2 2026-04-15 03:01 374K
20260415T00Z_MSC_RDPS_WindDir_IsbL-0050_RLatLon0.09_PT069H.grib2 2026-04-15 03:01 395K
20260415T00Z_MSC_RDPS_WindDir_IsbL-0100_RLatLon0.09_PT069H.grib2 2026-04-15 03:01 387K
20260415T00Z_MSC_RDPS_WindDir_IsbL-0150_RLatLon0.09_PT069H.grib2 2026-04-15 03:01 375K
20260415T00Z_MSC_RDPS_WindDir_IsbL-0175_RLatLon0.09_PT069H.grib2 2026-04-15 03:01 398K
20260415T00Z_MSC_RDPS_WindDir_IsbL-0200_RLatLon0.09_PT069H.grib2 2026-04-15 03:01 417K
20260415T00Z_MSC_RDPS_WindDir_IsbL-0225_RLatLon0.09_PT069H.grib2 2026-04-15 03:01 422K
20260415T00Z_MSC_RDPS_WindDir_IsbL-0250_RLatLon0.09_PT069H.grib2 2026-04-15 03:01 426K
20260415T00Z_MSC_RDPS_WindDir_IsbL-0275_RLatLon0.09_PT069H.grib2 2026-04-15 03:01 450K
20260415T00Z_MSC_RDPS_WindDir_IsbL-0300_RLatLon0.09_PT069H.grib2 2026-04-15 03:01 447K
20260415T00Z_MSC_RDPS_WindDir_IsbL-0350_RLatLon0.09_PT069H.grib2 2026-04-15 03:01 469K
20260415T00Z_MSC_RDPS_WindDir_IsbL-0400_RLatLon0.09_PT069H.grib2 2026-04-15 03:01 487K
20260415T00Z_MSC_RDPS_WindDir_IsbL-0450_RLatLon0.09_PT069H.grib2 2026-04-15 03:01 506K
20260415T00Z_MSC_RDPS_WindDir_IsbL-0500_RLatLon0.09_PT069H.grib2 2026-04-15 03:01 529K
20260415T00Z_MSC_RDPS_WindDir_IsbL-0550_RLatLon0.09_PT069H.grib2 2026-04-15 03:01 554K
20260415T00Z_MSC_RDPS_WindDir_IsbL-0600_RLatLon0.09_PT069H.grib2 2026-04-15 03:01 586K
20260415T00Z_MSC_RDPS_WindDir_IsbL-0650_RLatLon0.09_PT069H.grib2 2026-04-15 03:01 631K
20260415T00Z_MSC_RDPS_WindDir_IsbL-0700_RLatLon0.09_PT069H.grib2 2026-04-15 03:01 682K
20260415T00Z_MSC_RDPS_WindDir_IsbL-0750_RLatLon0.09_PT069H.grib2 2026-04-15 03:01 730K
20260415T00Z_MSC_RDPS_WindDir_IsbL-0800_RLatLon0.09_PT069H.grib2 2026-04-15 03:01 788K
20260415T00Z_MSC_RDPS_WindDir_IsbL-0850_RLatLon0.09_PT069H.grib2 2026-04-15 03:01 851K
20260415T00Z_MSC_RDPS_WindDir_IsbL-0875_RLatLon0.09_PT069H.grib2 2026-04-15 03:01 877K
20260415T00Z_MSC_RDPS_WindDir_IsbL-0900_RLatLon0.09_PT069H.grib2 2026-04-15 03:01 898K
20260415T00Z_MSC_RDPS_WindDir_IsbL-0925_RLatLon0.09_PT069H.grib2 2026-04-15 03:01 909K
20260415T00Z_MSC_RDPS_WindDir_IsbL-0950_RLatLon0.09_PT069H.grib2 2026-04-15 03:01 905K
20260415T00Z_MSC_RDPS_WindDir_IsbL-0970_RLatLon0.09_PT069H.grib2 2026-04-15 03:01 909K
20260415T00Z_MSC_RDPS_WindDir_IsbL-0985_RLatLon0.09_PT069H.grib2 2026-04-15 03:01 920K
20260415T00Z_MSC_RDPS_WindDir_IsbL-1000_RLatLon0.09_PT069H.grib2 2026-04-15 03:01 934K
20260415T00Z_MSC_RDPS_WindDir_IsbL-1015_RLatLon0.09_PT069H.grib2 2026-04-15 03:01 952K
20260415T00Z_MSC_RDPS_WindGust-Max_AGL-10m_RLatLon0.09_PT069H.grib2 2026-04-15 03:01 1.0M
20260415T00Z_MSC_RDPS_WindGust-Min_AGL-10m_RLatLon0.09_PT069H.grib2 2026-04-15 03:01 1.0M
20260415T00Z_MSC_RDPS_WindGust_AGL-10m_RLatLon0.09_PT069H.grib2 2026-04-15 03:01 1.0M
20260415T00Z_MSC_RDPS_WindSpeed_AGL-10m_RLatLon0.09_PT069H.grib2 2026-04-15 03:01 845K
20260415T00Z_MSC_RDPS_WindSpeed_AGL-120m_RLatLon0.09_PT069H.grib2 2026-04-15 03:01 537K
20260415T00Z_MSC_RDPS_WindSpeed_AGL-40m_RLatLon0.09_PT069H.grib2 2026-04-15 03:01 543K
20260415T00Z_MSC_RDPS_WindSpeed_AGL-80m_RLatLon0.09_PT069H.grib2 2026-04-15 03:01 539K
20260415T00Z_MSC_RDPS_WindSpeed_IsbL-0001_RLatLon0.09_PT069H.grib2 2026-04-15 03:01 250K
20260415T00Z_MSC_RDPS_WindSpeed_IsbL-0005_RLatLon0.09_PT069H.grib2 2026-04-15 03:01 339K
20260415T00Z_MSC_RDPS_WindSpeed_IsbL-0010_RLatLon0.09_PT069H.grib2 2026-04-15 03:01 351K
20260415T00Z_MSC_RDPS_WindSpeed_IsbL-0020_RLatLon0.09_PT069H.grib2 2026-04-15 03:01 370K
20260415T00Z_MSC_RDPS_WindSpeed_IsbL-0030_RLatLon0.09_PT069H.grib2 2026-04-15 03:01 333K
20260415T00Z_MSC_RDPS_WindSpeed_IsbL-0050_RLatLon0.09_PT069H.grib2 2026-04-15 03:01 368K
20260415T00Z_MSC_RDPS_WindSpeed_IsbL-0100_RLatLon0.09_PT069H.grib2 2026-04-15 03:01 445K
20260415T00Z_MSC_RDPS_WindSpeed_IsbL-0150_RLatLon0.09_PT069H.grib2 2026-04-15 03:01 365K
20260415T00Z_MSC_RDPS_WindSpeed_IsbL-0175_RLatLon0.09_PT069H.grib2 2026-04-15 03:01 391K
20260415T00Z_MSC_RDPS_WindSpeed_IsbL-0200_RLatLon0.09_PT069H.grib2 2026-04-15 03:01 433K
20260415T00Z_MSC_RDPS_WindSpeed_IsbL-0225_RLatLon0.09_PT069H.grib2 2026-04-15 03:01 444K
20260415T00Z_MSC_RDPS_WindSpeed_IsbL-0250_RLatLon0.09_PT069H.grib2 2026-04-15 03:01 450K
20260415T00Z_MSC_RDPS_WindSpeed_IsbL-0275_RLatLon0.09_PT069H.grib2 2026-04-15 03:01 466K
20260415T00Z_MSC_RDPS_WindSpeed_IsbL-0300_RLatLon0.09_PT069H.grib2 2026-04-15 03:01 461K
20260415T00Z_MSC_RDPS_WindSpeed_IsbL-0350_RLatLon0.09_PT069H.grib2 2026-04-15 03:01 471K
20260415T00Z_MSC_RDPS_WindSpeed_IsbL-0400_RLatLon0.09_PT069H.grib2 2026-04-15 03:01 454K
20260415T00Z_MSC_RDPS_WindSpeed_IsbL-0450_RLatLon0.09_PT069H.grib2 2026-04-15 03:01 452K
20260415T00Z_MSC_RDPS_WindSpeed_IsbL-0500_RLatLon0.09_PT069H.grib2 2026-04-15 03:01 569K
20260415T00Z_MSC_RDPS_WindSpeed_IsbL-0550_RLatLon0.09_PT069H.grib2 2026-04-15 03:01 570K
20260415T00Z_MSC_RDPS_WindSpeed_IsbL-0600_RLatLon0.09_PT069H.grib2 2026-04-15 03:01 582K
20260415T00Z_MSC_RDPS_WindSpeed_IsbL-0650_RLatLon0.09_PT069H.grib2 2026-04-15 03:01 603K
20260415T00Z_MSC_RDPS_WindSpeed_IsbL-0700_RLatLon0.09_PT069H.grib2 2026-04-15 03:01 625K
20260415T00Z_MSC_RDPS_WindSpeed_IsbL-0750_RLatLon0.09_PT069H.grib2 2026-04-15 03:01 656K
20260415T00Z_MSC_RDPS_WindSpeed_IsbL-0800_RLatLon0.09_PT069H.grib2 2026-04-15 03:01 706K
20260415T00Z_MSC_RDPS_WindSpeed_IsbL-0850_RLatLon0.09_PT069H.grib2 2026-04-15 03:01 764K
20260415T00Z_MSC_RDPS_WindSpeed_IsbL-0875_RLatLon0.09_PT069H.grib2 2026-04-15 03:01 785K
20260415T00Z_MSC_RDPS_WindSpeed_IsbL-0900_RLatLon0.09_PT069H.grib2 2026-04-15 03:01 807K
20260415T00Z_MSC_RDPS_WindSpeed_IsbL-0925_RLatLon0.09_PT069H.grib2 2026-04-15 03:01 868K
20260415T00Z_MSC_RDPS_WindSpeed_IsbL-0950_RLatLon0.09_PT069H.grib2 2026-04-15 03:01 867K
20260415T00Z_MSC_RDPS_WindSpeed_IsbL-0970_RLatLon0.09_PT069H.grib2 2026-04-15 03:01 862K
20260415T00Z_MSC_RDPS_WindSpeed_IsbL-0985_RLatLon0.09_PT069H.grib2 2026-04-15 03:01 859K
20260415T00Z_MSC_RDPS_WindSpeed_IsbL-1000_RLatLon0.09_PT069H.grib2 2026-04-15 03:01 857K
20260415T00Z_MSC_RDPS_WindSpeed_IsbL-1015_RLatLon0.09_PT069H.grib2 2026-04-15 03:01 847K
20260415T00Z_MSC_RDPS_WindU_AGL-10m_RLatLon0.09_PT069H.grib2 2026-04-15 03:01 437K
20260415T00Z_MSC_RDPS_WindU_AGL-120m_RLatLon0.09_PT069H.grib2 2026-04-15 03:01 419K
20260415T00Z_MSC_RDPS_WindU_AGL-40m_RLatLon0.09_PT069H.grib2 2026-04-15 03:01 540K
20260415T00Z_MSC_RDPS_WindU_AGL-80m_RLatLon0.09_PT069H.grib2 2026-04-15 03:01 538K
20260415T00Z_MSC_RDPS_WindU_IsbL-0001_RLatLon0.09_PT069H.grib2 2026-04-15 03:01 291K
20260415T00Z_MSC_RDPS_WindU_IsbL-0005_RLatLon0.09_PT069H.grib2 2026-04-15 03:01 304K
20260415T00Z_MSC_RDPS_WindU_IsbL-0010_RLatLon0.09_PT069H.grib2 2026-04-15 03:01 315K
20260415T00Z_MSC_RDPS_WindU_IsbL-0020_RLatLon0.09_PT069H.grib2 2026-04-15 03:01 259K
20260415T00Z_MSC_RDPS_WindU_IsbL-0030_RLatLon0.09_PT069H.grib2 2026-04-15 03:01 258K
20260415T00Z_MSC_RDPS_WindU_IsbL-0050_RLatLon0.09_PT069H.grib2 2026-04-15 03:01 361K
20260415T00Z_MSC_RDPS_WindU_IsbL-0100_RLatLon0.09_PT069H.grib2 2026-04-15 03:01 341K
20260415T00Z_MSC_RDPS_WindU_IsbL-0150_RLatLon0.09_PT069H.grib2 2026-04-15 03:01 384K
20260415T00Z_MSC_RDPS_WindU_IsbL-0175_RLatLon0.09_PT069H.grib2 2026-04-15 03:01 409K
20260415T00Z_MSC_RDPS_WindU_IsbL-0200_RLatLon0.09_PT069H.grib2 2026-04-15 03:01 428K
20260415T00Z_MSC_RDPS_WindU_IsbL-0225_RLatLon0.09_PT069H.grib2 2026-04-15 03:01 437K
20260415T00Z_MSC_RDPS_WindU_IsbL-0250_RLatLon0.09_PT069H.grib2 2026-04-15 03:01 341K
20260415T00Z_MSC_RDPS_WindU_IsbL-0275_RLatLon0.09_PT069H.grib2 2026-04-15 03:01 354K
20260415T00Z_MSC_RDPS_WindU_IsbL-0300_RLatLon0.09_PT069H.grib2 2026-04-15 03:01 349K
20260415T00Z_MSC_RDPS_WindU_IsbL-0350_RLatLon0.09_PT069H.grib2 2026-04-15 03:01 356K
20260415T00Z_MSC_RDPS_WindU_IsbL-0400_RLatLon0.09_PT069H.grib2 2026-04-15 03:01 457K
20260415T00Z_MSC_RDPS_WindU_IsbL-0450_RLatLon0.09_PT069H.grib2 2026-04-15 03:01 456K
20260415T00Z_MSC_RDPS_WindU_IsbL-0500_RLatLon0.09_PT069H.grib2 2026-04-15 03:01 458K
20260415T00Z_MSC_RDPS_WindU_IsbL-0550_RLatLon0.09_PT069H.grib2 2026-04-15 03:01 461K
20260415T00Z_MSC_RDPS_WindU_IsbL-0600_RLatLon0.09_PT069H.grib2 2026-04-15 03:01 471K
20260415T00Z_MSC_RDPS_WindU_IsbL-0650_RLatLon0.09_PT069H.grib2 2026-04-15 03:01 490K
20260415T00Z_MSC_RDPS_WindU_IsbL-0700_RLatLon0.09_PT069H.grib2 2026-04-15 03:01 510K
20260415T00Z_MSC_RDPS_WindU_IsbL-0750_RLatLon0.09_PT069H.grib2 2026-04-15 03:01 524K
20260415T00Z_MSC_RDPS_WindU_IsbL-0800_RLatLon0.09_PT069H.grib2 2026-04-15 03:01 568K
20260415T00Z_MSC_RDPS_WindU_IsbL-0850_RLatLon0.09_PT069H.grib2 2026-04-15 03:01 618K
20260415T00Z_MSC_RDPS_WindU_IsbL-0875_RLatLon0.09_PT069H.grib2 2026-04-15 03:01 645K
20260415T00Z_MSC_RDPS_WindU_IsbL-0900_RLatLon0.09_PT069H.grib2 2026-04-15 03:01 662K
20260415T00Z_MSC_RDPS_WindU_IsbL-0925_RLatLon0.09_PT069H.grib2 2026-04-15 03:01 666K
20260415T00Z_MSC_RDPS_WindU_IsbL-0950_RLatLon0.09_PT069H.grib2 2026-04-15 03:01 661K
20260415T00Z_MSC_RDPS_WindU_IsbL-0970_RLatLon0.09_PT069H.grib2 2026-04-15 03:01 658K
20260415T00Z_MSC_RDPS_WindU_IsbL-0985_RLatLon0.09_PT069H.grib2 2026-04-15 03:01 797K
20260415T00Z_MSC_RDPS_WindU_IsbL-1000_RLatLon0.09_PT069H.grib2 2026-04-15 03:01 796K
20260415T00Z_MSC_RDPS_WindU_IsbL-1015_RLatLon0.09_PT069H.grib2 2026-04-15 03:01 789K
20260415T00Z_MSC_RDPS_WindV_AGL-10m_RLatLon0.09_PT069H.grib2 2026-04-15 03:01 434K
20260415T00Z_MSC_RDPS_WindV_AGL-120m_RLatLon0.09_PT069H.grib2 2026-04-15 03:01 532K
20260415T00Z_MSC_RDPS_WindV_AGL-40m_RLatLon0.09_PT069H.grib2 2026-04-15 03:01 535K
20260415T00Z_MSC_RDPS_WindV_AGL-80m_RLatLon0.09_PT069H.grib2 2026-04-15 03:01 533K
20260415T00Z_MSC_RDPS_WindV_IsbL-0001_RLatLon0.09_PT069H.grib2 2026-04-15 03:01 267K
20260415T00Z_MSC_RDPS_WindV_IsbL-0005_RLatLon0.09_PT069H.grib2 2026-04-15 03:01 302K
20260415T00Z_MSC_RDPS_WindV_IsbL-0010_RLatLon0.09_PT069H.grib2 2026-04-15 03:01 344K
20260415T00Z_MSC_RDPS_WindV_IsbL-0020_RLatLon0.09_PT069H.grib2 2026-04-15 03:01 364K
20260415T00Z_MSC_RDPS_WindV_IsbL-0030_RLatLon0.09_PT069H.grib2 2026-04-15 03:01 328K
20260415T00Z_MSC_RDPS_WindV_IsbL-0050_RLatLon0.09_PT069H.grib2 2026-04-15 03:01 361K
20260415T00Z_MSC_RDPS_WindV_IsbL-0100_RLatLon0.09_PT069H.grib2 2026-04-15 03:01 429K
20260415T00Z_MSC_RDPS_WindV_IsbL-0150_RLatLon0.09_PT069H.grib2 2026-04-15 03:01 380K
20260415T00Z_MSC_RDPS_WindV_IsbL-0175_RLatLon0.09_PT069H.grib2 2026-04-15 03:01 406K
20260415T00Z_MSC_RDPS_WindV_IsbL-0200_RLatLon0.09_PT069H.grib2 2026-04-15 03:01 426K
20260415T00Z_MSC_RDPS_WindV_IsbL-0225_RLatLon0.09_PT069H.grib2 2026-04-15 03:01 338K
20260415T00Z_MSC_RDPS_WindV_IsbL-0250_RLatLon0.09_PT069H.grib2 2026-04-15 03:01 341K
20260415T00Z_MSC_RDPS_WindV_IsbL-0275_RLatLon0.09_PT069H.grib2 2026-04-15 03:01 354K
20260415T00Z_MSC_RDPS_WindV_IsbL-0300_RLatLon0.09_PT069H.grib2 2026-04-15 03:01 349K
20260415T00Z_MSC_RDPS_WindV_IsbL-0350_RLatLon0.09_PT069H.grib2 2026-04-15 03:01 355K
20260415T00Z_MSC_RDPS_WindV_IsbL-0400_RLatLon0.09_PT069H.grib2 2026-04-15 03:01 456K
20260415T00Z_MSC_RDPS_WindV_IsbL-0450_RLatLon0.09_PT069H.grib2 2026-04-15 03:01 455K
20260415T00Z_MSC_RDPS_WindV_IsbL-0500_RLatLon0.09_PT069H.grib2 2026-04-15 03:01 456K
20260415T00Z_MSC_RDPS_WindV_IsbL-0550_RLatLon0.09_PT069H.grib2 2026-04-15 03:01 458K
20260415T00Z_MSC_RDPS_WindV_IsbL-0600_RLatLon0.09_PT069H.grib2 2026-04-15 03:01 470K
20260415T00Z_MSC_RDPS_WindV_IsbL-0650_RLatLon0.09_PT069H.grib2 2026-04-15 03:01 470K
20260415T00Z_MSC_RDPS_WindV_IsbL-0700_RLatLon0.09_PT069H.grib2 2026-04-15 03:01 491K
20260415T00Z_MSC_RDPS_WindV_IsbL-0750_RLatLon0.09_PT069H.grib2 2026-04-15 03:01 518K
20260415T00Z_MSC_RDPS_WindV_IsbL-0800_RLatLon0.09_PT069H.grib2 2026-04-15 03:01 561K
20260415T00Z_MSC_RDPS_WindV_IsbL-0850_RLatLon0.09_PT069H.grib2 2026-04-15 03:01 612K
20260415T00Z_MSC_RDPS_WindV_IsbL-0875_RLatLon0.09_PT069H.grib2 2026-04-15 03:01 633K
20260415T00Z_MSC_RDPS_WindV_IsbL-0900_RLatLon0.09_PT069H.grib2 2026-04-15 03:01 651K
20260415T00Z_MSC_RDPS_WindV_IsbL-0925_RLatLon0.09_PT069H.grib2 2026-04-15 03:01 662K
20260415T00Z_MSC_RDPS_WindV_IsbL-0950_RLatLon0.09_PT069H.grib2 2026-04-15 03:01 657K
20260415T00Z_MSC_RDPS_WindV_IsbL-0970_RLatLon0.09_PT069H.grib2 2026-04-15 03:01 653K
20260415T00Z_MSC_RDPS_WindV_IsbL-0985_RLatLon0.09_PT069H.grib2 2026-04-15 03:01 793K
20260415T00Z_MSC_RDPS_WindV_IsbL-1000_RLatLon0.09_PT069H.grib2 2026-04-15 03:01 789K
20260415T00Z_MSC_RDPS_WindV_IsbL-1015_RLatLon0.09_PT069H.grib2 2026-04-15 03:01 782K